Weather in Galati

Romania     45°26′58″N   28°02′00″E
temp.,
°C
wind,
m/s
gust,
m/s
humid.,
%
clouds,
%
prec.,
mm/h
press.,
hPa
HPBL,
m
22 october, fri
fri2200:00+13ssw49620 0.0 1014152
03:00+11ssw35705 0.0 101476
06:00+10ssw35772 0.0 101480
09:00+12ssw24655 0.0 1016126
12:00+19sw454297 0.0 1016403
15:00+22sw4434100 0.0 1015889
18:00+18ssw2346100 0.0 101519
21:00+16ssw2249100 0.0 101616
23 october, sat
sat2300:00+15s2264100 0.0 101616
03:00+14se2268100 0.0 101612
06:00+13ene1166100 0.0 101611
09:00+15n3656100 0.0 1018184
12:00+14nne3561100 0.3 1020254
15:00+15ne235913 0.4 1020290
18:00+15w35488 0.0 102081
21:00+12n36645 0.0 102292
24 october, sun
sun2400:00+10nne338894 0.0 102328
03:00+10nne51048100 0.0 1025375
06:00+9nne484896 0.0 1026304
09:00+9nne510535 0.0 1028422
12:00+12n67415 0.0 10291457
15:00+14n673311 0.0 10282174
18:00+11n47375 0.0 1029140
21:00+8n38435 0.0 1032183
25 october, mon
mon2500:00+6n37535 0.0 1033148
03:00+4n37620 0.0 1034145
06:00+4n35675 0.0 103488
09:00+5nne34615 0.0 1035159
12:00+9ne33433 0.0 10351080
15:00+11ne23362 0.0 10331301
18:00+9e22420 0.0 103211
21:00+7e22490 0.0 103310
26 october, tue
tue2600:00+6se33610 0.0 103333
03:00+5ese22690 0.0 103212
06:00+4ese22760 0.0 103214
09:00+6e23710 0.0 1031113
12:00+11se45485 0.0 10301056
15:00+13se34405 0.0 10281244
18:00+11sse22515 0.0 102712
21:00+8sse36705 0.0 1027103